ASIASAT 8 (AMOS-7)

Last updated on Sun Apr 12 2026 00:02:53 GMT+0000 (Coordinated Universal Time)

1 40107U 14046A 26101.47024176 -.00000332 00000+0 00000+0 0 9995 2 40107 0.0143 249.5990 0001463 131.9999 92.6847 1.00274428101483
UTC large
Height (km)
Speed (km/s)
/
Latitude / Longitude
Inclination (degrees)
Orbital Period (minutes)
Azimuth
Elevation
Range (km)
Doppler Factor

Next 0 passes for location: London (51.5072 / 0.1276)

Sorry there are no passes over London.
ASIASAT 8 (AMOS-7)